Regional Weather Roundup
Issued by NWS Boston, MA

Home | Current Version | Previous Version | Text Only | Print | Product List | Glossary On
Versions: 1 2 3 4 5 6 7 8 9 10 11 12 13 14 15 16 17 18 19 20 21 22 23 24 25 26 27 28
000
ASUS41 KBOX 301310
RWRBOX

REGIONAL WEATHER ROUNDUP
NATIONAL WEATHER SERVICE TAUNTON MA
900 AM EDT THU OCT 30 2014

NOTE:  "FAIR" INDICATES FEW OR NO CLOUDS BELOW 12,000 FEET WITH NO
SIGNIFICANT WEATHER AND/OR OBSTRUCTIONS TO VISIBILITY.  THE FOLLOWING
OBSERVATION LOCATIONS DO NOT REPORT PRESENT WEATHER...PROVINCETOWN...
SMITHFIELD...BLOCK ISLAND...KEENE...AND OXFORD.

MAZALL-301400-
EASTERN MASSACHUSETTS

CITY           SKY/WX    TMP DP  RH WIND       PRES   REMARKS
BOSTON         MOSUNNY   50  40  68 W13       29.94R
BEVERLY        CLOUDY    47  41  80 NW6       29.93R
LAWRENCE       CLOUDY    45  41  86 SW5       29.95R
BEDFORD        PTSUNNY   45  42  89 CALM      29.93R
BLUE HILL        N/A     45  39  79 W10       29.92R
NORWOOD        SUNNY     42  42 100 CALM      29.94R
MARSHFIELD     NOT AVBL
PLYMOUTH       MOSUNNY   49  42  77 W7        29.94R
TAUNTON        MOSUNNY   46  43  89 W3        29.95R
NEW BEDFORD    MOSUNNY   49  43  80 CALM      29.94R
$$

MAZALL-301400-
CAPE COD AND THE ISLANDS

CITY           SKY/WX    TMP DP  RH WIND       PRES   REMARKS
FALMOUTH       MOSUNNY   48  41  76 NW7       29.94R
HYANNIS        SUNNY     52  42  69 NW6       29.92S
CHATHAM        MOSUNNY   51  43  74 NW5       29.94R
PROVINCETOWN   MOSUNNY   52   0  11 NW9       29.93S
NANTUCKET      MOSUNNY   54  41  61 NW10      29.94R
MARTHAS VNYRD  SUNNY     50  42  74 NW6       29.95R
$$

MAZALL-301400-
CENTRAL AND WESTERN MASSACHUSETTS

CITY           SKY/WX    TMP DP  RH WIND       PRES   REMARKS
WORCESTER      CLOUDY    46  38  73 W12       29.94R
FITCHBURG      CLOUDY    48  38  68 W12       29.95R
ORANGE         FOG       36  35  96 CALM      29.95S VSB 3/4
SPRINGFIELD    CLOUDY    41  41  98 CALM      29.97R
WESTFIELD      CLOUDY    41  39  93 CALM      29.97R
NORTH ADAMS    CLOUDY    47  38  71 CALM      29.97R
PITTSFIELD     MOSUNNY   44  39  82 W16G22    29.96R
$$

RIZALL-301400-
RHODE ISLAND

CITY           SKY/WX    TMP DP  RH WIND       PRES   REMARKS
PROVIDENCE     MOSUNNY   50  40  68 W6        29.96R
NEWPORT        SUNNY     52  41  66 NW8       29.95R
BLOCK ISLAND   SUNNY     54  39  58 NW12      29.96R
SMITHFIELD     SUNNY     46  34  61 W9        29.94R
WESTERLY       LGT RAIN  49  39  68 W5        29.97R
$$

CTZALL-301400-
CONNECTICUT

CITY           SKY/WX    TMP DP  RH WIND       PRES   REMARKS
BRADLEY INTL   PTSUNNY   45  41  86 S3        29.97R
HARTFORD       CLOUDY    43  42  97 SE8       29.99R
BRIDGEPORT     SUNNY     49  45  86 N6        29.98R
DANBURY        SUNNY     44  41  89 CALM      30.00R
GROTON         SUNNY     47  42  83 NE3       29.97R
NEW HAVEN      PTSUNNY   48  45  89 CALM      29.98R
CHESTER        NOT AVBL
MERIDEN        CLOUDY    45  41  86 N3        29.99R
WILLIMANTIC    PTSUNNY   39  37  92 CALM      29.98S
OXFORD         MOSUNNY   45  37  76 N7        30.00R
$$

MEZ002-015-021-024-NHZ003-005-008-011-012-014-VTZ005-008-301400-
NORTHERN NEW ENGLAND

CITY           SKY/WX    TMP DP  RH WIND       PRES   REMARKS
PORTLAND ME    PTSUNNY   45  40  82 NW7       29.91R
BANGOR ME      MOSUNNY   44  40  85 CALM      29.87S
CONCORD NH     CLOUDY    36  35  96 N3        29.94R
MANCHESTER NH  PTSUNNY   42  36  79 CALM      29.92S
NASHUA NH      CLOUDY    42  41  97 CALM      29.94S
PORTSMOUTH NH  PTSUNNY   47  40  77 W8        29.91S
JAFFREY NH     CLOUDY    39  38  96 S6        29.94R
KEENE NH       CLOUDY    37  30  75 CALM      29.96S
BURLINGTON VT  PTSUNNY   47  38  71 N10       29.96R
MT. WASHINGTON FOG       25  25 100 W31         N/A  VSB 0   WCI   8
$$

NYZ052-076-301400-
EASTERN NEW YORK

CITY           SKY/WX    TMP DP  RH WIND       PRES   REMARKS
ALBANY         PTSUNNY   49  39  68 W8        29.99R
NEW YORK CITY  MOSUNNY   53  43  68 NW10      29.99R
$$

ANZALL-301400-
MARINE OBSERVATIONS

STATION/POSITION TIME  TEMP    WIND        PRES    VSBY  WAVE
                       AIR SEA DIR/SP/G                  HT/PER
                 (UTC) (F)     (DEG/KT/KT) (MB)    (MI)  (FT/S)
BOSTON BUOY      1250   51 54  280/ 12/ 16 1013.7R         1/ 2
BUZZARDS BAY     1200          310/ 12/ 13 1014.5R
NANTUCKET SOUND  1250   53 56  320/ 10/ 12 1013.5R         1/ 3
MASS BAY-STELLWA NOT AVBL
ISLE OF SHOALS   1300   48     280/ 14/ 16 1012.3R
S OF BLOCK IS    1208      61                N/A           3/ 7
$$

......................KEY.........................
  SKY/WX - SKY CONDITION/PRESENT WEATHER
  TMP    - TEMPERATURE IN FAHRENHEIT
  DWPT   - DEWPOINT IN FAHRENHEIT
  RH     - RELATIVE HUMIDITY IN PERCENT
  WIND   - DIRECTION AND SPEED IN MPH
  PRES   - MEAN SEA LEVEL PRESSURE IN INCHES OF HG
  WCI    - WIND CHILL INDEX
  VSB    - VISIBILITY IN MILES
  HX     - HEAT INDEX
  TC     - TEMPERATURE IN CELSIUS
  VRB    - VARIABLE WIND DIRECTION
  N/A    - NOT AVAILABLE



USA.gov is the U.S. government's official web portal to all federal, state and local government web resources and services.